Starlink 31447

operational
NORAD ID: 59302 Int'l Des: 2024-056 Owner: SPXS Country: US Constellation: starlink
LEOCIRCULAR

About Starlink 31447

Description loading...

Live Position

Loading 3D Globe...

Upcoming Passes

Altitude History

Altitude vs Time

uPlot chart will show altitude changes over time

Two-Line Element Set

1 59302U 24056G 25259.03877415 -.00001009 00000-0 -27158-4 0 9993
2 59302 42.9977 137.0574 0001151 263.7127 96.3594 15.27585085 84444
Epoch: Sep 16, 2025 • Age: 17 hours

Current Status

Altitude 495.4 km
Velocity 7.62 km/s
Sub-Earth Point -42.71°S, 149.78°E
Launch Date Mar 24, 2024
Age 1.4 years
Type internet

Technical Details

Classification Payload
Mass 730.00 kg
Dry Mass 700.00 kg
Total Mass 730.00 kg
Length 0.30 m
Diameter 4.10 m
Span 29.00 m
Shape Box + pan
Manufacturer SPXS
Bus Type Starlink V2M
Phase Status In Orbit
Owner/State SPXS/US

Large Constellations

Loading constellations...